Volver al catálogo

GP-B

ActivoCienciaPO
NORAD 28230·PAYLOAD·🇺🇸 United States

Lanzado Apr 20, 2004 desde Vandenberg Space Force Base

Loading…

Próximos Pases (próximas 24 horas)

TLE

ActualizadoSource: Space-Track

Época: Sep 14, 2026, 09:59 UTC

1 28230U 04014A   26257.41643996  .00000602  00000-0  71413-4 0  9996
2 28230  89.8512  48.4906 0002260  75.6809 284.4667 14.83374400665576

Sigue GP-B en tiempo real con AllMySat

Download on the App Store